User: anonymous   Login
Location: Unspecified
(0.0000°N, 0.0000°E)
Time: 15:19:14
(UTC+00:00)
Language:

Explorer 29 - Orbit

View from above orbital plane
View from above orbital plane
View from above satellite
View from above satellite

Ground track
Ground track

The orbit data is extracted from the following two-line orbital elements,

1 01726U 65089A   18231.78959931 -.00000082  00000-0 -41287-4 0  9998
2 01726  59.3825 334.3205 0718329 151.6270  12.0286 11.97050413307822
Epoch (UTC): 19 August 2018 18:57:01
Eccentricity: 0.0718329
inclination: 59.3825°
perigee height: 1114 km
apogee height: 2274 km
right ascension of ascending node: 334.3205°
argument of perigee: 151.6270°
revolutions per day: 11.97050413
mean anomaly at epoch: 12.0286°
orbit number at epoch: 30782

The dashed part of the orbit path shows where the satellite is in the earth's shadow,  

DLR